User: anonymous   Login
Location: Unspecified
(0.0000°N, 0.0000°E)
Time: 17:32:17
(UTC+02:00)
Language:

Cosmos 1538 Rocket - Orbit

View from above orbital plane
View from above orbital plane
View from above satellite
View from above satellite

Ground track
Ground track

The orbit data is extracted from the following two-line orbital elements,

1 14760U 84019B   16121.55572861  .00000096  00000-0  42178-4 0  9991
2 14760  74.0424 158.7694 0026802 121.2506 347.6254 14.35766857684366
Epoch (UTC): 30 April 2016 13:20:14
Eccentricity: 0.0026802
inclination: 74.0424°
perigee height: 753 km
apogee height: 791 km
right ascension of ascending node: 158.7694°
argument of perigee: 121.2506°
revolutions per day: 14.35766857
mean anomaly at epoch: 347.6254°
orbit number at epoch: 68436

The dashed part of the orbit path shows where the satellite is in the earth's shadow,  

DLR